NTHWK29 KNYG-

Flight info

Callsign NTHWK29
Flight time N/A
Altitude
Route
Aircraft H60/M-VGD/C

Departure

Time 2026-05-09 01:41
Airport Quantico Marine Corps Airfield / Turner Field (KNYG)

Arrival

Time N/A
Airport -
Time Latitude Longitude Altitude Speed Heading
2026-05-09 01:35 38.50143 -77.30800 12 ft 0 kts 104°
2026-05-09 01:38 38.50139 -77.30797 13 ft 20 kts 112°
2026-05-09 01:38 38.50140 -77.30797 12 ft 0 kts 112°
2026-05-09 01:38 38.50143 -77.30800 12 ft 0 kts 104°
2026-05-09 01:40 38.50147 -77.30800 47 ft 5 kts 108°
2026-05-09 01:40 38.50067 -77.30585 253 ft 48 kts 131°
2026-05-09 01:41 38.49785 -77.30098 375 ft 105 kts 124°
2026-05-09 01:41 38.49685 -77.28986 290 ft 144 kts 78°
2026-05-09 01:41 38.50151 -77.27761 413 ft 164 kts 63°
2026-05-09 01:41 38.50744 -77.26420 688 ft 169 kts 60°
2026-05-09 01:42 38.51211 -77.25456 2038 ft 113 kts 63°
2026-05-09 01:42 38.51664 -77.24627 2589 ft 142 kts 60°
2026-05-09 01:42 38.52253 -77.23325 2398 ft 177 kts 60°
2026-05-09 01:42 38.52881 -77.21936 2473 ft 186 kts 61°
2026-05-09 01:43 38.53532 -77.20476 2484 ft 191 kts 60°
2026-05-09 01:43 38.54182 -77.19003 2490 ft 192 kts 60°
2026-05-09 01:43 38.54838 -77.17513 2490 ft 193 kts 60°
2026-05-09 01:43 38.55503 -77.16013 2492 ft 193 kts 60°
2026-05-09 01:44 38.56175 -77.14505 2417 ft 198 kts 60°
2026-05-09 01:44 38.56884 -77.12905 1784 ft 216 kts 60°
2026-05-09 01:44 38.57612 -77.11233 1219 ft 213 kts 59°
2026-05-09 01:44 38.58297 -77.09632 998 ft 193 kts 59°
2026-05-09 01:45 38.58902 -77.08215 994 ft 174 kts 59°
2026-05-09 01:45 38.59465 -77.06905 995 ft 165 kts 60°
2026-05-09 01:45 38.60016 -77.05636 986 ft 161 kts 59°
2026-05-09 01:45 38.60551 -77.04395 987 ft 158 kts 59°
2026-05-09 01:46 38.61079 -77.03175 986 ft 156 kts 60°
2026-05-09 01:46 38.61607 -77.01956 988 ft 156 kts 59°
2026-05-09 01:46 38.62130 -77.00750 989 ft 156 kts 59°
2026-05-09 01:46 38.62659 -76.99535 989 ft 156 kts 60°
2026-05-09 01:47 38.63192 -76.98309 991 ft 156 kts 60°
2026-05-09 01:47 38.63721 -76.97098 993 ft 157 kts 59°
2026-05-09 01:47 38.64259 -76.95875 989 ft 157 kts 60°
2026-05-09 01:47 38.64790 -76.94669 991 ft 157 kts 59°
2026-05-09 01:48 38.65325 -76.93434 980 ft 158 kts 64°
2026-05-09 01:48 38.65562 -76.92094 991 ft 153 kts 79°
2026-05-09 01:48 38.65758 -76.90752 1002 ft 154 kts 79°
2026-05-09 01:48 38.65952 -76.89405 1015 ft 154 kts 79°
2026-05-09 01:49 38.66153 -76.88046 1013 ft 155 kts 79°
2026-05-09 01:49 38.66353 -76.86682 1013 ft 155 kts 78°
2026-05-09 01:49 38.66919 -76.85530 1050 ft 158 kts 37°
2026-05-09 01:49 38.67943 -76.84998 1036 ft 159 kts
2026-05-09 01:50 38.69042 -76.84817 1031 ft 158 kts 354°
2026-05-09 01:50 38.70134 -76.84875 1014 ft 158 kts 349°
2026-05-09 01:50 38.71235 -76.85032 1006 ft 151 kts 339°
2026-05-09 01:50 38.72184 -76.85410 928 ft 145 kts 333°
2026-05-09 01:51 38.73109 -76.85823 852 ft 132 kts 334°
2026-05-09 01:51 38.73968 -76.86163 828 ft 126 kts 335°
2026-05-09 01:51 38.74796 -76.86472 799 ft 120 kts 338°
2026-05-09 01:51 38.75601 -76.86693 764 ft 116 kts 343°
2026-05-09 01:52 38.76388 -76.86813 718 ft 113 kts 350°
2026-05-09 01:52 38.77170 -76.86921 712 ft 114 kts 344°
2026-05-09 01:52 38.77956 -76.87109 709 ft 109 kts 343°
2026-05-09 01:52 38.78726 -76.87241 605 ft 113 kts 349°
2026-05-09 01:53 38.79507 -76.87328 532 ft 110 kts 346°
2026-05-09 01:53 38.80104 -76.87472 510 ft 66 kts 340°
2026-05-09 01:53 38.80421 -76.87570 430 ft 28 kts 323°
2026-05-09 01:53 38.80620 -76.87655 380 ft 18 kts 334°
2026-05-09 01:54 38.80654 -76.87633 305 ft 3 kts 355°
2026-05-09 01:54 38.80659 -76.87633 312 ft 5 kts 15°
2026-05-09 01:54 38.80658 -76.87642 304 ft 7 kts 10°
2026-05-09 01:54 38.80702 -76.87639 266 ft 9 kts 355°
2026-05-09 01:55 38.80705 -76.87647 266 ft 0 kts 355°
2026-05-09 01:55 38.80706 -76.87655 265 ft 0 kts 355°